Location: Grand Rapids
(42.9630°N, 85.6680°W)
Time: 01:44:25
(UTC-04:00)

A-11 Canister half - Pass Details

Date: 30 May 2024
Orbit: 1524 x 1684 km, 47.3° (Epoch: 21 June)

Event Time Altitude Azimuth Distance (km) Brightness Sun altitude
Rises 00:14:00 0° 281° (W) 4,697 12.0 -22.2°
Reaches altitude 10° 00:17:04 10° 283° (WNW) 3,728 11.4 -22.4°
Maximum altitude 00:26:30 70° 8° (N) 1,662 9.2 -23.0°
Drops below altitude 10° 00:36:16 10° 92° (E) 3,846 10.9 -23.5°
Sets 00:39:28 0° 95° (E) 4,853 11.4 -23.7°
